owner,sensor,date,latitude,longitude,vertical_datum,wind_speed,wind_to_direction,wind_speed_of_gust,qcFlag 
TABS,ioos:station:wmo:42047:1,2008-02-01T00:00:00Z,27.8966,-93.5973,4.0,11.31028293,322.7247106,13.45,'11111222,11111222,11111222' 
TABS,ioos:station:wmo:42047:1,2008-02-01T00:30:00Z,27.8966,-93.5973,4.0,11.71892913,327.0149424,14.93,'11111222,11111222,11111222' 
TABS,ioos:station:wmo:42047:1,2008-02-01T01:00:00Z,27.8966,-93.5973,4.0,11.9751785,323.9338061,15.0,'11111222,11111222,11111222' 
TABS,ioos:station:wmo:42047:1,2008-02-01T01:30:00Z,27.8966,-93.5973,4.0,11.63307784,328.6053192,14.2,'11111222,11111222,11111222' 
TABS,ioos:station:wmo:42047:1,2008-02-01T02:00:00Z,27.8966,-93.5973,4.0,11.24421629,325.8010221,13.68,'11111222,11111222,11111222' 
TABS,ioos:station:wmo:42047:1,2008-02-01T02:30:00Z,27.8966,-93.5973,4.0,11.75057871,321.5304473,13.97,'11111222,11111222,11111222' 
TABS,ioos:station:wmo:42047:1,2008-02-01T03:00:00Z,27.8966,-93.5973,4.0,12.37041632,326.875031,14.8,'11111222,11111222,11111222' 
TABS,ioos:station:wmo:42047:1,2008-02-01T03:30:00Z,27.8966,-93.5973,4.0,12.91791392,325.3748464,15.76,'11111222,11111222,11111222' 
TABS,ioos:station:wmo:42047:1,2008-02-01T04:00:00Z,27.8966,-93.5973,4.0,11.890656,329.6393692,13.81,'11111222,11111222,11111222' 
TABS,ioos:station:wmo:42047:1,2008-02-01T04:30:00Z,27.8966,-93.5973,4.0,13.01003459,330.380614,15.7,'11111222,11111222,11111222' 
TABS,ioos:station:wmo:42047:1,2008-02-01T05:00:00Z,27.8966,-93.5973,4.0,13.29761633,332.4520251,15.85,'11111222,11111222,11111222' 
TABS,ioos:station:wmo:42047:1,2008-02-01T05:30:00Z,27.8966,-93.5973,4.0,12.08679031,334.7280798,15.65,'11111222,11111222,11111222' 
TABS,ioos:station:wmo:42047:1,2008-02-01T06:00:00Z,27.8966,-93.5973,4.0,12.66864239,337.6861265,16.51,'11111222,11111222,11111222' 
TABS,ioos:station:wmo:42047:1,2008-02-01T06:30:00Z,27.8966,-93.5973,4.0,12.15006996,338.3122691,15.61,'11111222,11111222,11111222' 
TABS,ioos:station:wmo:42047:1,2008-02-01T07:00:00Z,27.8966,-93.5973,4.0,12.05766976,340.2724941,14.86,'11111222,11111222,11111222' 
TABS,ioos:station:wmo:42047:1,2008-02-01T07:30:00Z,27.8966,-93.5973,4.0,12.62221058,347.2297574,16.02,'11111222,11111222,11111222' 
TABS,ioos:station:wmo:42047:1,2008-02-01T08:00:00Z,27.8966,-93.5973,4.0,11.73432998,343.309938,15.13,'11111222,11111222,11111222' 
TABS,ioos:station:wmo:42047:1,2008-02-01T08:30:00Z,27.8966,-93.5973,4.0,11.536919,343.9998572,14.07,'11111222,11111222,11111222' 
TABS,ioos:station:wmo:42047:1,2008-02-01T09:00:00Z,27.8966,-93.5973,4.0,11.59362325,349.5137364,15.14,'11111222,11111222,11111222' 
TABS,ioos:station:wmo:42047:1,2008-02-01T09:30:00Z,27.8966,-93.5973,4.0,12.09117447,353.7799705,15.39,'11111222,11111222,11111222' 
TABS,ioos:station:wmo:42047:1,2008-02-01T10:00:00Z,27.8966,-93.5973,4.0,10.8281485,354.5945871,13.09,'11111222,11111222,11111222' 
TABS,ioos:station:wmo:42047:1,2008-02-01T10:30:00Z,27.8966,-93.5973,4.0,10.0060032,349.869102,12.92,'11111222,11111222,11111222' 
TABS,ioos:station:wmo:42047:1,2008-02-01T11:00:00Z,27.8966,-93.5973,4.0,9.953833432,355.2744007,12.81,'11111222,11111222,11111222' 
TABS,ioos:station:wmo:42047:1,2008-02-01T11:30:00Z,27.8966,-93.5973,4.0,9.176300998,357.8763871,11.59,'11111222,11111222,11111222' 
TABS,ioos:station:wmo:42047:1,2008-02-01T12:00:00Z,27.8966,-93.5973,4.0,8.800278405,359.5440383,11.14,'11111222,11144222,11111222' 
TABS,ioos:station:wmo:42047:1,2008-02-01T12:30:00Z,27.8966,-93.5973,4.0,8.663867497,3.24197381,10.88,'11111222,11111222,11111222' 
TABS,ioos:station:wmo:42047:1,2008-02-01T13:00:00Z,27.8966,-93.5973,4.0,7.879397185,4.950620629,9.76,'11111222,11111222,11111222' 
TABS,ioos:station:wmo:42047:1,2008-02-01T13:30:00Z,27.8966,-93.5973,4.0,7.191001321,0.955956326,9.16,'11111222,11111222,11111222' 
TABS,ioos:station:wmo:42047:1,2008-02-01T14:00:00Z,27.8966,-93.5973,4.0,6.999207098,8.627680676,9.28,'11111222,11111222,11111222' 
TABS,ioos:station:wmo:42047:1,2008-02-01T14:30:00Z,27.8966,-93.5973,4.0,6.165257497,14.08107936,8.59,'11111222,11111222,11111222' 
TABS,ioos:station:wmo:42047:1,2008-02-01T15:00:00Z,27.8966,-93.5973,4.0,5.521095906,12.02203811,7.55,'11111222,11111222,11111222' 
TABS,ioos:station:wmo:42047:1,2008-02-01T15:30:00Z,27.8966,-93.5973,4.0,5.097626899,5.967599658,7.9,'11111222,11111222,11111222' 
TABS,ioos:station:wmo:42047:1,2008-02-01T16:00:00Z,27.8966,-93.5973,4.0,4.714445885,16.51274379,6.82,'11111222,11111222,11111222' 
TABS,ioos:station:wmo:42047:1,2008-02-01T16:30:00Z,27.8966,-93.5973,4.0,3.420935545,29.41221548,4.96,'11111222,11111222,11111222' 
TABS,ioos:station:wmo:42047:1,2008-02-01T17:00:00Z,27.8966,-93.5973,4.0,3.706818042,21.02615402,5.64,'11111222,11111222,11111222' 
TABS,ioos:station:wmo:42047:1,2008-02-01T17:30:00Z,27.8966,-93.5973,4.0,2.856588875,29.34654849,4.8,'11111222,11111222,11111222' 
TABS,ioos:station:wmo:42047:1,2008-02-01T18:00:00Z,27.8966,-93.5973,4.0,2.898723857,30.01428354,4.87,'11111222,11111222,11111222' 
TABS,ioos:station:wmo:42047:1,2008-02-01T18:30:00Z,27.8966,-93.5973,4.0,2.482136177,15.65978205,4.86,'11111222,11111222,11111222' 
TABS,ioos:station:wmo:42047:1,2008-02-01T19:00:00Z,27.8966,-93.5973,4.0,1.651302516,16.89839872,3.02,'11111222,11111222,11111222' 
TABS,ioos:station:wmo:42047:1,2008-02-01T19:30:00Z,27.8966,-93.5973,4.0,2.496096953,36.36460435,4.07,'11111222,11111222,11111222' 
TABS,ioos:station:wmo:42047:1,2008-02-01T20:00:00Z,27.8966,-93.5973,4.0,3.078473648,37.87468462,4.61,'11111222,11111222,11111222' 
TABS,ioos:station:wmo:42047:1,2008-02-01T20:30:00Z,27.8966,-93.5973,4.0,3.760558469,49.74542116,5.9,'11111222,11111222,11111222' 
TABS,ioos:station:wmo:42047:1,2008-02-01T21:00:00Z,27.8966,-93.5973,4.0,3.747972785,62.68254241,5.46,'11111222,11111222,11111222' 
TABS,ioos:station:wmo:42047:1,2008-02-01T21:30:00Z,27.8966,-93.5973,4.0,3.614000553,73.77112,5.42,'11111222,11111222,11111222' 
TABS,ioos:station:wmo:42047:1,2008-02-01T22:00:00Z,27.8966,-93.5973,4.0,3.26547087,81.54691648,5.06,'11111222,11111222,11111222' 
TABS,ioos:station:wmo:42047:1,2008-02-01T22:30:00Z,27.8966,-93.5973,4.0,2.543108334,107.1528025,3.94,'11111222,11111222,11111222' 
TABS,ioos:station:wmo:42047:1,2008-02-01T23:00:00Z,27.8966,-93.5973,4.0,2.570019455,106.0376485,4.36,'11111222,11111222,11111222' 
TABS,ioos:station:wmo:42047:1,2008-02-01T23:30:00Z,27.8966,-93.5973,4.0,2.961367927,88.2580183,5.12,'11111222,11111222,11111222' 
TABS,ioos:station:wmo:42047:1,2008-02-02T00:00:00Z,27.8966,-93.5973,4.0,4.324534657,96.10650049,5.98,'11111222,11111222,11111222' 
TABS,ioos:station:wmo:42047:1,2008-02-02T00:30:00Z,27.8966,-93.5973,4.0,5.235656597,96.69106251,7.1,'11111222,11111222,11111222' 
TABS,ioos:station:wmo:42047:1,2008-02-02T01:00:00Z,27.8966,-93.5973,4.0,5.737464597,98.1163816,8.35,'11111222,11111222,11111222' 
TABS,ioos:station:wmo:42047:1,2008-02-02T01:30:00Z,27.8966,-93.5973,4.0,5.76022569,103.9642582,8.5,'11111222,11111222,11111222' 
TABS,ioos:station:wmo:42047:1,2008-02-02T02:00:00Z,27.8966,-93.5973,4.0,5.832915223,115.3792432,8.72,'11111222,11111222,11111222' 
TABS,ioos:station:wmo:42047:1,2008-02-02T02:30:00Z,27.8966,-93.5973,4.0,5.002339453,119.5889593,7.27,'11111222,11111222,11111222' 
TABS,ioos:station:wmo:42047:1,2008-02-02T03:00:00Z,27.8966,-93.5973,4.0,5.558282109,121.0878535,7.01,'11111222,11111222,11111222' 
TABS,ioos:station:wmo:42047:1,2008-02-02T03:30:00Z,27.8966,-93.5973,4.0,6.079712164,120.6570227,8.05,'11111222,11111222,11111222' 
TABS,ioos:station:wmo:42047:1,2008-02-02T04:00:00Z,27.8966,-93.5973,4.0,6.807767622,118.8996404,9.03,'11111222,11111222,11111222' 
TABS,ioos:station:wmo:42047:1,2008-02-02T04:30:00Z,27.8966,-93.5973,4.0,6.73902812,125.1525582,8.34,'11111222,11111222,11111222' 
TABS,ioos:station:wmo:42047:1,2008-02-02T05:00:00Z,27.8966,-93.5973,4.0,6.803837153,136.1913218,8.87,'11111222,11111222,11111222' 
TABS,ioos:station:wmo:42047:1,2008-02-02T05:30:00Z,27.8966,-93.5973,4.0,7.524493338,141.1502213,9.35,'11111222,11111222,11111222' 
TABS,ioos:station:wmo:42047:1,2008-02-02T06:00:00Z,27.8966,-93.5973,4.0,7.071548628,141.3151853,9.33,'11111222,11111222,11111222' 
TABS,ioos:station:wmo:42047:1,2008-02-02T06:30:00Z,27.8966,-93.5973,4.0,7.712016597,143.0115286,9.83,'11111222,11111222,11111222' 
TABS,ioos:station:wmo:42047:1,2008-02-02T07:00:00Z,27.8966,-93.5973,4.0,8.842019,151.4932487,11.12,'11111222,11111222,11111222' 
TABS,ioos:station:wmo:42047:1,2008-02-02T07:30:00Z,27.8966,-93.5973,4.0,8.752742427,154.196386,11.06,'11111222,11111222,11111222' 
TABS,ioos:station:wmo:42047:1,2008-02-02T08:00:00Z,27.8966,-93.5973,4.0,8.188406438,151.5573483,9.74,'11111222,11111222,11111222' 
TABS,ioos:station:wmo:42047:1,2008-02-02T08:30:00Z,27.8966,-93.5973,4.0,8.590838143,159.5613023,10.26,'11111222,11111222,11111222' 
TABS,ioos:station:wmo:42047:1,2008-02-02T09:00:00Z,27.8966,-93.5973,4.0,8.532022035,164.7097888,10.54,'11111222,11111222,11111222' 
TABS,ioos:station:wmo:42047:1,2008-02-02T09:30:00Z,27.8966,-93.5973,4.0,8.310336937,160.0171507,10.39,'11111222,11111222,11111222' 
TABS,ioos:station:wmo:42047:1,2008-02-02T10:00:00Z,27.8966,-93.5973,4.0,7.78235183,159.9353807,10.11,'11111222,11111222,11111222' 
TABS,ioos:station:wmo:42047:1,2008-02-02T10:30:00Z,27.8966,-93.5973,4.0,8.024369134,170.7492025,9.63,'11111222,11111222,11111222' 
TABS,ioos:station:wmo:42047:1,2008-02-02T11:00:00Z,27.8966,-93.5973,4.0,6.884475289,172.1526013,8.35,'11111222,11111222,11111222' 
TABS,ioos:station:wmo:42047:1,2008-02-02T11:30:00Z,27.8966,-93.5973,4.0,6.209581306,173.5275701,7.74,'11111222,11111222,11111222' 
TABS,ioos:station:wmo:42047:1,2008-02-02T12:00:00Z,27.8966,-93.5973,4.0,5.872180174,178.4388759,6.93,'11111222,11111222,11111222' 
TABS,ioos:station:wmo:42047:1,2008-02-02T12:30:00Z,27.8966,-93.5973,4.0,5.351457745,183.7501793,6.73,'11111222,11111222,11111222' 
TABS,ioos:station:wmo:42047:1,2008-02-02T13:00:00Z,27.8966,-93.5973,4.0,5.3699162,166.4298078,6.77,'11111222,11111222,11111222' 
TABS,ioos:station:wmo:42047:1,2008-02-02T13:30:00Z,27.8966,-93.5973,4.0,4.531103618,178.7356113,5.41,'11111222,11111222,11111222' 
TABS,ioos:station:wmo:42047:1,2008-02-02T14:00:00Z,27.8966,-93.5973,4.0,4.626888804,162.3876738,5.74,'11111222,11111222,11111222' 
TABS,ioos:station:wmo:42047:1,2008-02-02T14:30:00Z,27.8966,-93.5973,4.0,3.84629692,183.279189,4.73,'11111222,11111222,11111222' 
TABS,ioos:station:wmo:42047:1,2008-02-02T15:00:00Z,27.8966,-93.5973,4.0,3.360372003,179.1476596,4.11,'11111222,11111222,11111222' 
TABS,ioos:station:wmo:42047:1,2008-02-02T15:30:00Z,27.8966,-93.5973,4.0,3.705266522,172.0888117,4.48,'11111222,11111222,11111222' 
TABS,ioos:station:wmo:42047:1,2008-02-02T16:00:00Z,27.8966,-93.5973,4.0,3.725224825,147.1634073,5.46,'11111222,11111222,11111222' 
TABS,ioos:station:wmo:42047:1,2008-02-02T16:30:00Z,27.8966,-93.5973,4.0,4.717806694,124.0272409,5.76,'11111222,11111222,11111222' 
TABS,ioos:station:wmo:42047:1,2008-02-02T17:00:00Z,27.8966,-93.5973,4.0,5.444859961,122.9315713,6.53,'11111222,11111222,11111222' 
TABS,ioos:station:wmo:42047:1,2008-02-02T17:30:00Z,27.8966,-93.5973,4.0,5.704533285,126.0867853,6.95,'11111222,11111222,11111222' 
TABS,ioos:station:wmo:42047:1,2008-02-02T18:00:00Z,27.8966,-93.5973,4.0,5.383103194,118.5173739,6.5,'11111222,11111222,11111222' 
TABS,ioos:station:wmo:42047:1,2008-02-02T18:30:00Z,27.8966,-93.5973,4.0,5.796697336,123.3888564,7.08,'11111222,11111222,11111222' 
TABS,ioos:station:wmo:42047:1,2008-02-02T19:00:00Z,27.8966,-93.5973,4.0,5.400981392,114.6199099,6.49,'11111222,11111222,11111222' 
TABS,ioos:station:wmo:42047:1,2008-02-02T19:30:00Z,27.8966,-93.5973,4.0,5.901084646,108.9880006,7.04,'11111222,11111222,11111222' 
TABS,ioos:station:wmo:42047:1,2008-02-02T20:00:00Z,27.8966,-93.5973,4.0,5.617259118,104.4324501,6.52,'11111222,11111222,11111222' 
TABS,ioos:station:wmo:42047:1,2008-02-02T20:30:00Z,27.8966,-93.5973,4.0,5.956786046,104.3865599,6.98,'11111222,11111222,11111222' 
TABS,ioos:station:wmo:42047:1,2008-02-02T21:00:00Z,27.8966,-93.5973,4.0,6.253958746,99.94469193,7.49,'11111222,11111222,11111222' 
TABS,ioos:station:wmo:42047:1,2008-02-02T21:30:00Z,27.8966,-93.5973,4.0,5.993479791,98.34681525,6.93,'11111222,11111222,11111222' 
TABS,ioos:station:wmo:42047:1,2008-02-02T22:00:00Z,27.8966,-93.5973,4.0,6.870254726,98.20126871,8.12,'11111222,11111222,11111222' 
TABS,ioos:station:wmo:42047:1,2008-02-02T22:30:00Z,27.8966,-93.5973,4.0,7.607003352,103.0683981,8.8,'11111222,11111222,11111222' 
TABS,ioos:station:wmo:42047:1,2008-02-02T23:00:00Z,27.8966,-93.5973,4.0,8.381753993,96.37079317,9.96,'11111222,11111222,11111222' 
TABS,ioos:station:wmo:42047:1,2008-02-02T23:30:00Z,27.8966,-93.5973,4.0,8.093732143,101.185379,9.6,'11111222,11111222,11111222' 
TABS,ioos:station:wmo:42047:1,2008-02-03T00:00:00Z,27.8966,-93.5973,4.0,8.342331808,100.2192415,9.67,'11111222,11111222,11111222' 
TABS,ioos:station:wmo:42047:1,2008-02-03T00:30:00Z,27.8966,-93.5973,4.0,8.160398275,101.3791753,9.62,'11111222,11111222,11111222' 
TABS,ioos:station:wmo:42047:1,2008-02-03T01:00:00Z,27.8966,-93.5973,4.0,7.615366045,102.6679294,9.14,'11111222,11111222,11111222' 
TABS,ioos:station:wmo:42047:1,2008-02-03T01:30:00Z,27.8966,-93.5973,4.0,7.830357591,102.9895229,9.53,'11111222,11111222,11111222' 
TABS,ioos:station:wmo:42047:1,2008-02-03T02:00:00Z,27.8966,-93.5973,4.0,7.433875167,104.4104967,9.02,'11111222,11111222,11111222' 
TABS,ioos:station:wmo:42047:1,2008-02-03T02:30:00Z,27.8966,-93.5973,4.0,7.404924037,102.4788443,9.18,'11111222,11111222,11111222' 
TABS,ioos:station:wmo:42047:1,2008-02-03T03:00:00Z,27.8966,-93.5973,4.0,6.911352979,99.32643285,8.33,'11111222,11111222,11111222' 
TABS,ioos:station:wmo:42047:1,2008-02-03T03:30:00Z,27.8966,-93.5973,4.0,7.285169868,111.2468045,9.05,'11111222,11111222,11111222' 
TABS,ioos:station:wmo:42047:1,2008-02-03T04:00:00Z,27.8966,-93.5973,4.0,7.180598861,114.9594107,9.13,'11111222,11111222,11111222' 
TABS,ioos:station:wmo:42047:1,2008-02-03T04:30:00Z,27.8966,-93.5973,4.0,6.560678319,116.3310733,8.2,'11111222,11111222,11111222' 
TABS,ioos:station:wmo:42047:1,2008-02-03T05:00:00Z,27.8966,-93.5973,4.0,5.934526097,116.5222332,6.99,'11111222,11111222,11111222' 
TABS,ioos:station:wmo:42047:1,2008-02-03T05:30:00Z,27.8966,-93.5973,4.0,6.45012403,117.7175249,7.8,'11111222,11111222,11111222' 
TABS,ioos:station:wmo:42047:1,2008-02-03T06:00:00Z,27.8966,-93.5973,4.0,5.96487217,119.5307771,7.24,'11111222,11111222,11111222' 
TABS,ioos:station:wmo:42047:1,2008-02-03T06:30:00Z,27.8966,-93.5973,4.0,5.304498091,120.7232906,6.54,'11111222,11111222,11111222' 
TABS,ioos:station:wmo:42047:1,2008-02-03T07:00:00Z,27.8966,-93.5973,4.0,4.884751785,117.8244522,5.83,'11111222,11111222,11111222' 
TABS,ioos:station:wmo:42047:1,2008-02-03T07:30:00Z,27.8966,-93.5973,4.0,4.152023603,123.3076789,4.81,'11111222,11111222,11111222' 
TABS,ioos:station:wmo:42047:1,2008-02-03T08:00:00Z,27.8966,-93.5973,4.0,5.866012274,143.2476078,6.91,'11111222,11111222,11111222' 
TABS,ioos:station:wmo:42047:1,2008-02-03T08:30:00Z,27.8966,-93.5973,4.0,6.214217569,141.599682,7.6,'11111222,11111222,11111222' 
TABS,ioos:station:wmo:42047:1,2008-02-03T09:00:00Z,27.8966,-93.5973,4.0,7.202943843,149.0910936,8.89,'11111222,11111222,11111222' 
TABS,ioos:station:wmo:42047:1,2008-02-03T09:30:00Z,27.8966,-93.5973,4.0,7.815727733,146.2695577,9.34,'11111222,11111222,11111222' 
TABS,ioos:station:wmo:42047:1,2008-02-03T10:00:00Z,27.8966,-93.5973,4.0,6.738582937,148.4094929,7.8,'11111222,11111222,11111222' 
TABS,ioos:station:wmo:42047:1,2008-02-03T10:30:00Z,27.8966,-93.5973,4.0,6.012362265,152.0286913,7.18,'11111222,11111222,11111222' 
TABS,ioos:station:wmo:42047:1,2008-02-03T11:00:00Z,27.8966,-93.5973,4.0,6.508586636,150.9542246,7.77,'11111222,11111222,11111222' 
TABS,ioos:station:wmo:42047:1,2008-02-03T11:30:00Z,27.8966,-93.5973,4.0,5.76850934,147.9633168,7.26,'11111222,11111222,11111222' 
TABS,ioos:station:wmo:42047:1,2008-02-03T12:00:00Z,27.8966,-93.5973,4.0,5.308898191,145.5918187,6.45,'11111222,11111222,11111222' 
TABS,ioos:station:wmo:42047:1,2008-02-03T12:30:00Z,27.8966,-93.5973,4.0,5.295129838,153.0480946,6.28,'11111222,11111222,11111222' 
TABS,ioos:station:wmo:42047:1,2008-02-03T13:00:00Z,27.8966,-93.5973,4.0,5.114186152,151.6312305,6.11,'11111222,11111222,11111222' 
TABS,ioos:station:wmo:42047:1,2008-02-03T13:30:00Z,27.8966,-93.5973,4.0,5.871805514,150.2917077,6.75,'11111222,11111222,11111222' 
TABS,ioos:station:wmo:42047:1,2008-02-03T14:00:00Z,27.8966,-93.5973,4.0,5.701876884,150.242935,6.89,'11111222,11111222,11111222' 
TABS,ioos:station:wmo:42047:1,2008-02-03T14:30:00Z,27.8966,-93.5973,4.0,4.399568161,155.707204,5.14,'11111222,11111222,11111222' 
TABS,ioos:station:wmo:42047:1,2008-02-03T15:00:00Z,27.8966,-93.5973,4.0,5.315119942,149.7205658,6.15,'11111222,11111222,11111222' 
TABS,ioos:station:wmo:42047:1,2008-02-03T15:30:00Z,27.8966,-93.5973,4.0,5.751669323,152.6778581,6.82,'11111222,11111222,11111222' 
TABS,ioos:station:wmo:42047:1,2008-02-03T16:00:00Z,27.8966,-93.5973,4.0,5.698877082,152.1761791,6.74,'11111222,11111222,11111222' 
TABS,ioos:station:wmo:42047:1,2008-02-03T16:30:00Z,27.8966,-93.5973,4.0,4.811756436,158.9285525,5.8,'11111222,11111222,11111222' 
TABS,ioos:station:wmo:42047:1,2008-02-03T17:00:00Z,27.8966,-93.5973,4.0,5.131832032,164.284892,5.97,'11111222,11111222,11111222' 
TABS,ioos:station:wmo:42047:1,2008-02-03T17:30:00Z,27.8966,-93.5973,4.0,4.220426519,168.7968018,4.88,'11111222,11111222,11111222' 
TABS,ioos:station:wmo:42047:1,2008-02-03T18:00:00Z,27.8966,-93.5973,4.0,4.016092628,161.5653047,4.74,'11111222,11111222,11111222' 
TABS,ioos:station:wmo:42047:1,2008-02-03T18:30:00Z,27.8966,-93.5973,4.0,3.66218514,160.872645,4.22,'11111222,11111222,11111222' 
TABS,ioos:station:wmo:42047:1,2008-02-03T19:00:00Z,27.8966,-93.5973,4.0,3.795115282,141.7413198,4.37,'11111222,11111222,11111222' 
TABS,ioos:station:wmo:42047:1,2008-02-03T19:30:00Z,27.8966,-93.5973,4.0,3.555840266,146.9358903,4.48,'11111222,11111222,11111222' 
TABS,ioos:station:wmo:42047:1,2008-02-03T20:00:00Z,27.8966,-93.5973,4.0,3.668855407,151.6889439,4.37,'11111222,11111222,11111222' 
TABS,ioos:station:wmo:42047:1,2008-02-03T20:30:00Z,27.8966,-93.5973,4.0,3.548182633,143.7117329,4.17,'11111222,11111222,11111222' 
TABS,ioos:station:wmo:42047:1,2008-02-03T21:00:00Z,27.8966,-93.5973,4.0,3.882524952,141.0639269,4.78,'11111222,11111222,11111222' 
TABS,ioos:station:wmo:42047:1,2008-02-03T21:30:00Z,27.8966,-93.5973,4.0,4.226121153,143.5642432,4.93,'11111222,11111222,11111222' 
TABS,ioos:station:wmo:42047:1,2008-02-03T22:00:00Z,27.8966,-93.5973,4.0,4.249823526,148.6665838,5.15,'11111222,11111222,11111222' 
TABS,ioos:station:wmo:42047:1,2008-02-03T22:30:00Z,27.8966,-93.5973,4.0,5.278977174,148.4781069,6.58,'11111222,11111222,11111222' 
TABS,ioos:station:wmo:42047:1,2008-02-03T23:00:00Z,27.8966,-93.5973,4.0,5.508475288,140.8206711,6.43,'11111222,11111222,11111222' 
TABS,ioos:station:wmo:42047:1,2008-02-03T23:30:00Z,27.8966,-93.5973,4.0,5.800249995,145.3238805,7.82,'11111222,11111222,11111222' 
TABS,ioos:station:wmo:42047:1,2008-02-04T00:00:00Z,27.8966,-93.5973,4.0,6.265412995,146.5892156,7.6,'11111222,11111222,11111222' 
TABS,ioos:station:wmo:42047:1,2008-02-04T00:30:00Z,27.8966,-93.5973,4.0,6.666940828,144.0929716,7.92,'11111222,11111222,11111222' 
TABS,ioos:station:wmo:42047:1,2008-02-04T01:00:00Z,27.8966,-93.5973,4.0,6.34740892,147.6121713,7.51,'11111222,11111222,11111222' 
TABS,ioos:station:wmo:42047:1,2008-02-04T01:30:00Z,27.8966,-93.5973,4.0,7.15296442,145.9991976,8.65,'11111222,11111222,11111222' 
TABS,ioos:station:wmo:42047:1,2008-02-04T02:00:00Z,27.8966,-93.5973,4.0,6.74200267,143.0794091,7.7,'11111222,11111222,11111222' 
TABS,ioos:station:wmo:42047:1,2008-02-04T02:30:00Z,27.8966,-93.5973,4.0,7.502546234,145.8654216,8.62,'11111222,11111222,11111222' 
TABS,ioos:station:wmo:42047:1,2008-02-04T03:00:00Z,27.8966,-93.5973,4.0,7.009828814,148.2374952,8.54,'11111222,11111222,11111222' 
TABS,ioos:station:wmo:42047:1,2008-02-04T03:30:00Z,27.8966,-93.5973,4.0,7.352196951,147.780127,9.08,'11111222,11111222,11111222' 
TABS,ioos:station:wmo:42047:1,2008-02-04T04:00:00Z,27.8966,-93.5973,4.0,6.488343394,150.5511297,7.7,'11111222,11111222,11111222' 
TABS,ioos:station:wmo:42047:1,2008-02-04T04:30:00Z,27.8966,-93.5973,4.0,6.53911309,150.2988704,7.9,'11111222,11111222,11111222' 
TABS,ioos:station:wmo:42047:1,2008-02-04T05:00:00Z,27.8966,-93.5973,4.0,6.154843621,152.3111052,7.49,'11111222,11111222,11111222' 
TABS,ioos:station:wmo:42047:1,2008-02-04T05:30:00Z,27.8966,-93.5973,4.0,6.360440236,154.4827044,7.88,'11111222,11111222,11111222' 
TABS,ioos:station:wmo:42047:1,2008-02-04T06:00:00Z,27.8966,-93.5973,4.0,6.267734838,156.0934674,7.52,'11111222,11111222,11111222' 
TABS,ioos:station:wmo:42047:1,2008-02-04T06:30:00Z,27.8966,-93.5973,4.0,6.111579174,157.589532,7.32,'11111222,11111222,11111222' 
TABS,ioos:station:wmo:42047:1,2008-02-04T07:00:00Z,27.8966,-93.5973,4.0,6.202910607,155.6251134,7.44,'11111222,11111222,11111222' 
TABS,ioos:station:wmo:42047:1,2008-02-04T07:30:00Z,27.8966,-93.5973,4.0,5.407346854,154.2408143,6.74,'11111222,11111222,11111222' 
TABS,ioos:station:wmo:42047:1,2008-02-04T08:00:00Z,27.8966,-93.5973,4.0,5.09,154.3917382,6.0,'11111222,11111222,11111222' 
TABS,ioos:station:wmo:42047:1,2008-02-04T08:30:00Z,27.8966,-93.5973,4.0,5.348990559,154.0579756,6.32,'11111222,11111222,11111222' 
TABS,ioos:station:wmo:42047:1,2008-02-04T09:00:00Z,27.8966,-93.5973,4.0,5.570008977,155.0455182,6.77,'11111222,11111222,11111222' 
TABS,ioos:station:wmo:42047:1,2008-02-04T09:30:00Z,27.8966,-93.5973,4.0,4.328625648,157.8793171,5.27,'11111222,11111222,11111222' 
TABS,ioos:station:wmo:42047:1,2008-02-04T10:00:00Z,27.8966,-93.5973,4.0,4.822955525,151.7880269,6.08,'11111222,11111222,11111222' 
TABS,ioos:station:wmo:42047:1,2008-02-04T10:30:00Z,27.8966,-93.5973,4.0,6.731493148,146.758757,7.84,'11111222,11111222,11111222' 
TABS,ioos:station:wmo:42047:1,2008-02-04T11:00:00Z,27.8966,-93.5973,4.0,6.35232241,148.9127778,7.85,'11111222,11111222,11111222' 
TABS,ioos:station:wmo:42047:1,2008-02-04T11:30:00Z,27.8966,-93.5973,4.0,6.614204412,142.6799436,7.57,'11111222,11111222,11111222' 
TABS,ioos:station:wmo:42047:1,2008-02-04T12:00:00Z,27.8966,-93.5973,4.0,7.633773641,141.3287709,8.93,'11111222,11111222,11111222' 
TABS,ioos:station:wmo:42047:1,2008-02-04T12:30:00Z,27.8966,-93.5973,4.0,8.877257459,136.5065473,10.64,'11111222,11111222,11111222' 
TABS,ioos:station:wmo:42047:1,2008-02-04T13:00:00Z,27.8966,-93.5973,4.0,8.868427144,138.3828643,10.57,'11111222,11111222,11111222' 
TABS,ioos:station:wmo:42047:1,2008-02-04T13:30:00Z,27.8966,-93.5973,4.0,8.897561464,139.7412579,10.66,'11111222,11111222,11111222' 
TABS,ioos:station:wmo:42047:1,2008-02-04T14:00:00Z,27.8966,-93.5973,4.0,8.834438296,143.7011314,10.74,'11111222,11111222,11111222' 
TABS,ioos:station:wmo:42047:1,2008-02-04T14:30:00Z,27.8966,-93.5973,4.0,8.422279976,140.2992546,10.47,'11111222,11111222,11111222' 
TABS,ioos:station:wmo:42047:1,2008-02-04T15:00:00Z,27.8966,-93.5973,4.0,8.224335839,141.7648164,10.23,'11111222,11111222,11111222' 
TABS,ioos:station:wmo:42047:1,2008-02-04T15:30:00Z,27.8966,-93.5973,4.0,8.196047828,142.9346606,9.97,'11111222,11111222,11111222' 
TABS,ioos:station:wmo:42047:1,2008-02-04T16:00:00Z,27.8966,-93.5973,4.0,7.858784893,138.7663723,9.62,'11111222,11111222,11111222' 
TABS,ioos:station:wmo:42047:1,2008-02-04T16:30:00Z,27.8966,-93.5973,4.0,8.209049884,138.3088063,10.15,'11111222,11111222,11111222' 
TABS,ioos:station:wmo:42047:1,2008-02-04T17:00:00Z,27.8966,-93.5973,4.0,7.990675816,139.2123553,9.66,'11111222,11111222,11111222' 
TABS,ioos:station:wmo:42047:1,2008-02-04T17:30:00Z,27.8966,-93.5973,4.0,7.193364998,141.3778107,8.62,'11111222,11111222,11111222' 
TABS,ioos:station:wmo:42047:1,2008-02-04T18:00:00Z,27.8966,-93.5973,4.0,7.75283819,143.9729213,9.24,'11111222,11111222,11111222' 
TABS,ioos:station:wmo:42047:1,2008-02-04T18:30:00Z,27.8966,-93.5973,4.0,8.060055831,142.9171408,9.45,'11111222,11111222,11111222' 